TIANWANG 1B (TW-1B)
1 40927U 15051C   19210.28873177  .00006238  00000-0  95453-4 0  9999
2 40927  97.1359 255.7091 0006755 221.5021 198.6086 15.54709797216329
TIANWANG 1A (TW-1A)
1 40928U 15051D   19209.81577015  .00001796  00000-0  45580-4 0  9999
2 40928  97.1431 240.2305 0009429 292.4468 121.8797 15.40938502215353
LAPAN A2
1 40931U 15052B   19209.19949082  .00000963  00000-0  45167-4 0  9998
2 40931   6.0013 134.8684 0013106 351.6903   8.3345 14.76612543207114
LQSAT
1 40958U 15057A   19209.77603634 -.00000032 +00000-0 +27313-5 0  9998
2 40958 097.8965 277.8858 0019554 111.3945 248.9352 14.73084622204719
CHUBUSAT 2
1 41338U 16012B   19209.54774990 +.00000204 +00000-0 +91032-5 0  9991
2 41338 031.0022 251.4806 0013723 138.0350 222.1339 15.00161376188909
CHUBUSAT 3
1 41339U 16012C   19210.11134272  .00000192  00000-0  81103-5 0  9994
2 41339  31.0107 245.9410 0013480 151.0813 209.0575 15.00336524188985
OUFTI-1
1 41458U 16025C   19210.18924855  .00001330  00000-0  71748-4 0  9999
2 41458  98.1024 299.0938 0165555 220.5500 138.3297 15.05867392178666
E-STAR-2
1 41459U 16025D   19210.48118297 -.00000232  00000-0 -70283-5 0  9994
2 41459  98.0998 299.0400 0166557 220.9554 137.9064 15.05495187178684
AAUSAT 4
1 41460U 16025E   19210.47235276  .00000753  00000-0  42072-4 0  9992
2 41460  98.0956 300.3711 0156866 213.2735 145.8555 15.07397902178815
NUSAT 1
1 41557U 16033B   19210.20784204  .00000706  00000-0  29119-4 0  9994
2 41557  97.4180 297.4736 0014704 149.0404 211.1705 15.27270211176277
BEESAT 4
1 41619U 16040W   19209.91767956 +.00000714 +00000-0 +33145-4 0  9995
2 41619 097.3650 271.3881 0009854 237.3345 122.6942 15.23188581159986
PRATHAM
1 41783U 16059A   19209.74638214 +.00000007 +00000-0 +10683-4 0  9999
2 41783 098.0647 268.4385 0032228 257.5118 102.2477 14.63001066151402
ALSAT 1N
1 41789U 16059G   19210.17924810  .00000049  00000-0  18297-4 0  9999
2 41789  98.0673 270.9437 0027107 245.3916 114.4461 14.64252008151575
NAYIF 1
1 42017U 17008BX  19209.77418059  .00000804  00000-0  34486-4 0  9993
2 42017  97.4009 276.4520 0007168  41.2804 318.8975 15.25596776136039
MAX VALIER SAT
1 42778U 17036P   19209.69808229  .00000511  00000-0  25282-4 0  9990
2 42778  97.3517 266.4782 0014183  85.3059 274.9797 15.22059368116323
